High Desert Yearling Classic - South Hills

Station: South Hills 10 Miles - T Race

Distance: 10 Miles

Release: 15-Apr-2018 08:30

Weather Release:    Arrival:

Wind at Release:     Wind at Arrival:

Temp at Release: °    Temp at Arrival: °

Lofts: 99

Birds: 446

Clocked: 445

Multiple Groups! No training Monday 4-16 We are getting Snow at the loft!!!
Drops Pos Breeder Pigeon Name Color Sex Ent Arrival Speed To Win Eligible
201 F & D Lofts - AB 17244-AU17-FD BC H 5 09:54:36.00 208.038 00:28:52 Yes
201 Kwan Loft - CA 6246-AU17-HP RGRZ H 2 09:54:36.00 208.038 00:28:52 Yes
203 Fly & Criddle - ID 6653-AU17-FOYS 1697/238 BC H 5 09:54:37.00 207.997 00:28:53 Yes
204 Best Loft - IL 1666-AU17-CHI BB H 2 09:54:39.00 207.915 00:28:55 Yes
205 Almosta Loft - WA 47992-AU17-AA BB H 3 09:54:41.00 207.833 00:28:57 Yes
206 Dick & Marty Lee - ID 1050-AU17-IDA DC H 1 09:54:42.00 207.792 00:28:58 Yes
206 Ganus Family Loft - IN 0144-AU17-GFL BBWF H 6 09:54:42.00 207.792 00:28:58 Yes
208 Hammon And Friends - AZ 0422-AU17-DWI SLI H 6 09:54:44.00 207.710 00:29:00 Yes
208 Ed Kehl - UT 0395-AU17-WFA DCPD H 4 09:54:44.00 207.710 00:29:00 Yes
208 Powerstroke Loft - UT 0164-IF17-PS BB H 3 09:54:44.00 207.710 00:29:00 Yes
211 Dream Team - VT 0720-AU17-JCZL BB H 2 09:54:45.00 207.670 00:29:01 Yes
212 Scott/Carol Team - UT 0360-AU17-DWI BB H 3 09:54:46.00 207.629 00:29:02 Yes
213 El Dorado Lofts Canada - BC 1197-CU17-MTNP BC H 3 09:54:48.00 207.547 00:29:04 Yes
214 Silver Dollar Loft - CO 0146-AU17-SD BB H 8 09:54:51.00 207.425 00:29:07 Yes
215 Dream Team - VT 0826-AU17-JCZL BB H 3 09:55:02.00 206.978 00:29:18 Yes
216 Michael Kelly - CA 1731-AU17-ARC BC H 3 09:55:04.00 206.897 00:29:20 Yes
217 Hammon And Friends - AZ 0416-AU17-DWI BB H 7 09:55:07.00 206.775 00:29:23 Yes
218 Dave Naylor - BC 1102-CU17-MTNP BC H 2 09:55:13.00 206.532 00:29:29 Yes
219 Ed Kehl - UT 0391-AU17-WFA BC H 5 09:55:14.00 206.492 00:29:30 Yes
220 Chick Clayton - ID 0731-AU17-IDA BB H 1 09:55:15.00 206.452 00:29:31 Yes
221 Arendonk West - CA 26810-AU17-AA BB H 2 09:55:16.00 206.411 00:29:32 Yes
222 Ray Sackett - ID 0084-AU17-IDA BB H 1 09:55:19.00 206.290 00:29:35 Yes
222 Team Elite - IL 0591-AU17-ELIT BC H 3 09:55:19.00 206.290 00:29:35 Yes
224 Yong Bi - TX 59037-AU17-ARPU BB H 1 09:55:20.00 206.250 00:29:36 Yes
225 Rory Smith - UT 7378-AU17-CDR BB H 4 09:55:23.00 206.129 00:29:39 Yes
226 Hollywood Lou Loft - FL 0130-AU17-HL BB H 2 09:55:25.00 206.049 00:29:41 Yes
227 A-Lin Loft - ME 14872-US17-IPB BCSP H 2 09:55:37.00 205.567 00:29:53 Yes
228 Marian Taloi - OR 0233-AU17-OTC BB H 7 09:55:38.00 205.527 00:29:54 Yes
229 Stephen Brothers - CA 0767-AU17-COM BB H 1 09:55:40.00 205.447 00:29:56 Yes
230 Adirondack Team - NY 12996-AU17-AA BCPD H 3 09:55:44.00 205.288 00:30:00 Yes
231 Warbird Loft - CO 7331-AU17-FH Ridxok BB H 8 09:55:46.00 205.208 00:30:02 Yes
232 P N W Challenge - ID 7098-AU17-PNWC B1501-Z449" BB H 5 09:55:47.00 205.168 00:30:03 Yes
233 Marian Taloi - OR 11072-AU17-JEDD BC H 8 09:55:49.00 205.088 00:30:05 Yes
234 Yong Bi - TX 59039-AU17-ARPU BC H 2 09:56:11.00 204.216 00:30:27 Yes
235 Jimmy Zheng Loft - MS 0663-AU17-JZ BC H 3 09:56:15.00 204.058 00:30:31 Yes
236 Haack Loft - CA 2792-AU17-JEDD MLY H 3 09:56:25.00 203.664 00:30:41 Yes
237 Dream Team - VT 0574-AU17-JCZL RC H 4 09:56:33.00 203.351 00:30:49 Yes
238 Huan Qiu Zhang - NC 1740-IF17-JNC BB H 3 09:56:38.00 203.155 00:30:54 Yes
239 Dudley Loft - CO 17594-AU17-PUE BB H 2 09:56:43.00 202.960 00:30:59 Yes
240 Michael Kelly - CA 1736-AU17-ARC BC H 4 09:57:48.00 200.456 00:32:04 Yes
241 Racing Pigeon Mall - WA 0727-AU17-RPM BB H 5 09:57:54.00 200.228 00:32:10 Yes
242 Hammon And Friends - AZ 0594-AU17-DWI BB H 8 09:58:06.00 199.773 00:32:22 Yes
243 Doug Donner - CO 13482-AU17-ARPU BB H 4 09:58:11.00 199.584 00:32:27 Yes
244 K/N Loft - HI 40461-AU17-AA DC H 2 09:58:39.00 198.534 00:32:55 Yes
245 Yong Bi - TX 59038-AU17-ARPU BC H 3 09:58:44.00 198.347 00:33:00 Yes
246 Bieche-Stevenson - CA 7389-AU17-BIEC BB H 2 09:58:46.00 198.273 00:33:02 Yes
247 Scott / Morrison - UT 0370-AU17-DWI BBWF H 3 09:59:10.00 197.383 00:33:26 Yes
248 Marian Taloi - OR 11080-AU17-JEDD DC H 9 09:59:12.00 197.309 00:33:28 Yes
249 Sunshine Loft - BC 18785-CU17-CRPU BB H 2 09:59:28.00 196.721 00:33:44 Yes
250 Zuber Loft - CT 0192-AU17-NRA BC H 1 10:00:57.00 193.513 00:35:13 Yes
251 Eagle Ridge Lofts - WY 17044-AU17-EAGL INWF H 4 10:01:26.00 192.490 00:35:42 Yes
252 Sam Haslem - UT 7809-AU17-CDR BB H 5 10:01:50.00 191.652 00:36:06 Yes
253 Team Elite - IL 0593-AU17-ELIT BCSP H 4 10:02:40.00 189.928 00:36:56 Yes
254 Warbird Loft - CO 7329-AU17-FH Bzxh BC H 9 10:02:44.00 189.792 00:37:00 Yes
255 Marian Taloi - OR 0491-AU17-OTC BBSP H 10 10:03:07.00 189.010 00:37:23 Yes
256 Roberts Family Loft - MA 0186-IF17-NWC BBSP H 2 10:03:16.00 188.706 00:37:32 Yes
257 Pelican Loft - ID 1783-AU17-PEL BB H 2 10:18:51.00 161.690 00:53:07 Yes
258 Almosta Loft - WA 47995-AU17-AA BB H 4 10:18:56.00 161.567 00:53:12 Yes
259 Richard Callahan - MO 37941-AU17-AA BC H 1 10:18:57.00 161.542 00:53:13 Yes
260 K/N Loft - HI 40462-AU17-AA BB H 3 10:18:59.00 161.493 00:53:15 Yes
261 King Of The Hill - AZ 0994-AU17-PSC BC H 2 10:19:01.00 161.443 00:53:17 Yes
262 Pelican Loft - ID 1792-AU17-PEL BB H 3 10:19:02.00 161.419 00:53:18 Yes
263 Doug Donner - CO 13435-AU17-ARPU BC H 5 10:19:05.00 161.345 00:53:21 Yes
264 Scott/Carol Team - UT 0355-AU17-DWI BB H 4 10:19:09.00 161.246 00:53:25 Yes
265 Racing Pigeon Mall - WA 0733-AU17-RPM BLK H 6 10:19:12.00 161.172 00:53:28 Yes
266 High Plains Drifter Loft - CO 0027-AU17-HPDL BBSP H 3 10:19:13.00 161.148 00:53:29 Yes
267 Bert Bruno - UT 36375-AU17-JEDD BLK H 7 10:19:14.00 161.123 00:53:30 Yes
268 Papas Loft - ID 20333-AU17-ARPU BB H 4 10:19:16.00 161.074 00:53:32 Yes
269 Ed Kehl - UT 0987-AU17-WFA BB H 6 10:19:17.00 161.049 00:53:33 Yes
270 Ed Kehl - UT 0389-AU17-WFA WGRZ H 7 10:19:18.00 161.025 00:53:34 Yes
271 Western Loft - CA 2399-AU17-FCLM BBWF H 3 10:19:19.00 161.000 00:53:35 Yes
272 Dave Naylor - BC 1110-CU17-MTNP BBPN H 3 10:19:26.00 160.829 00:53:42 Yes
273 Joe Zarachowicz - MD 2245-IF17-CCC SLT H 2 10:19:36.00 160.584 00:53:52 Yes
274 Stephen Brothers - CA 0764-AU17-COM DNCK H 2 10:19:37.00 160.560 00:53:53 Yes
275 Powerstroke Loft - UT 0171-IF17-PS BCPD H 4 10:19:39.00 160.511 00:53:55 Yes
276 Eagle Ridge Lofts - WY 17037-AU17-EAGL WTSP H 5 10:19:42.00 160.438 00:53:58 Yes
276 Marian Taloi - OR 0242-AU17-OTC BB H 11 10:19:42.00 160.438 00:53:58 Yes
278 Baldwin & Tilson - NC 7177-AU17-TENT BBWT H 3 10:19:43.00 160.413 00:53:59 Yes
279 Best Loft - IL 1663-AU17-CHI BB H 3 10:19:44.00 160.389 00:54:00 Yes
280 Adirondack Team - NY 66402-AU17-ARPU GRZ H 4 10:19:45.00 160.364 00:54:01 Yes
281 Bert Bruno - UT 11475-IF17-FOYS BBWF H 8 10:19:46.00 160.340 00:54:02 Yes
282 Pelican Loft - ID 0786-AU17-IDA BB H 4 10:19:47.00 160.316 00:54:03 Yes
282 Sam Haslem - UT 7802-AU17-CDR BC H 6 10:19:47.00 160.316 00:54:03 Yes
284 Almosta Loft - WA 47993-AU17-AA BB H 5 10:19:48.00 160.291 00:54:04 Yes
285 Mike Beam - KS 70812-AU17-TOP BLK H 3 10:19:49.00 160.267 00:54:05 Yes
286 Baldwin & Tilson - NC 7169-AU17-TENT BB H 4 10:19:51.00 160.218 00:54:07 Yes
287 Silver Dollar Loft - CO 0069-AU17-SD BB H 9 10:19:52.00 160.194 00:54:08 Yes
288 K/N Loft - HI 7531-AU17-UIF BBWF H 4 10:19:54.00 160.146 00:54:10 Yes
289 Chick Clayton - ID 0726-AU17-IDA BB H 2 10:19:55.00 160.121 00:54:11 Yes
290 Pelican Loft - ID 0785-AU17-IDA BB C 5 10:19:58.00 160.048 00:54:14 Yes
291 Baldwin & Tilson - NC 7172-AU17-TENT PNSP H 5 10:19:59.00 160.024 00:54:15 Yes
292 E M C Syndicate - LA 7251-AU17-CENL BBSP H 3 10:20:01.00 159.976 00:54:17 Yes
292 Racing Pigeon Mall - WA 0734-AU17-RPM BLK H 7 10:20:01.00 159.976 00:54:17 Yes
294 Mario Rodriguez - AZ 15907-AU17-ARPU BC H 3 10:20:02.00 159.952 00:54:18 Yes
295 Powerstroke Loft - UT 0177-IF17-PS BC H 5 10:20:03.00 159.927 00:54:19 Yes
296 A-Lin Loft - ME 14871-US17-IPB BCWF H 3 10:20:04.00 159.903 00:54:20 Yes
297 Carlton Kroese-Crazy Al - CO 5091-AU17-CRAZ BB H 3 10:20:05.00 159.879 00:54:21 Yes
298 Huan Qiu Zhang - NC 1714-IF17-JNC BB H 4 10:20:06.00 159.855 00:54:22 Yes
299 Aimhigh Loft - CA 0082-AU17-FMT AIM-0082 BB H 4 10:20:09.00 159.782 00:54:25 Yes
299 Joe Zarachowicz - MD 2241-IF17-CCC BB H 3 10:20:09.00 159.782 00:54:25 Yes

There are 527 bird records

Note: These Race Results are unofficial and subject to change until verified by the Race Committee and declared final.

Click for forecast!